Location: ČR
(50.0000°N, 15.0000°E)
Time: 14:44:47
(UTC+00:00)

Explorer 7 - Pass Details

Date: 30 October 2021
Orbit: 483 x 675 km, 50.3° (Epoch: 27 November)

Event Time Altitude Azimuth Distance (km) Brightness Sun altitude
Rises 00:32:41 0° 282° (WNW) 2,806 - -47.5°
Reaches altitude 10° 00:35:32 10° 263° (W) 1,943 - -47.2°
Maximum altitude 00:38:28 17° 221° (SW) 1,552 - -46.9°
Drops below altitude 10° 00:41:29 10° 180° (S) 2,011 - -46.6°
Sets 00:44:31 0° 161° (SSE) 2,949 - -46.2°
